Time,TemperatureF,DewpointF,PressureIn,WindDirection,WindDirectionDegrees,WindSpeedMPH,WindSpeedGustMPH,Humidity,HourlyPrecipIn,Conditions,Clouds,dailyrainin,SoftwareType,DateUTC
2013-08-15 00:01:00,64.4,44.8,29.82,South,180,0.0,-999.0,49,-99.99,,,0.00,Acu-Link.com,2013-08-15 07:01:00,
2013-08-15 00:16:00,64.4,44.3,29.82,NNE,22,2.0,-999.0,48,-99.99,,,0.00,Acu-Link.com,2013-08-15 07:16:00,
2013-08-15 00:31:00,64.4,44.8,29.82,ESE,112,0.0,-999.0,49,-99.99,,,0.00,Acu-Link.com,2013-08-15 07:31:00,
2013-08-15 00:46:00,64.4,44.3,29.82,SSE,157,1.6,-999.0,48,-99.99,,,0.00,Acu-Link.com,2013-08-15 07:46:00,
2013-08-15 01:02:00,64.4,44.3,29.82,SSE,157,1.1,-999.0,48,-99.99,,,0.00,Acu-Link.com,2013-08-15 08:02:00,
2013-08-15 01:17:00,64.4,44.3,29.82,SSE,157,0.0,-999.0,48,-99.99,,,0.00,Acu-Link.com,2013-08-15 08:17:00,
2013-08-15 01:33:00,64.4,44.3,29.82,SSE,157,0.0,-999.0,48,-99.99,,,0.00,Acu-Link.com,2013-08-15 08:33:00,
2013-08-15 01:48:00,64.4,45.4,29.82,ESE,112,0.0,-999.0,50,-99.99,,,0.00,Acu-Link.com,2013-08-15 08:48:00,
2013-08-15 02:03:00,64.4,45.9,29.82,SE,135,2.0,-999.0,51,-99.99,,,0.00,Acu-Link.com,2013-08-15 09:03:00,
2013-08-15 02:18:00,64.4,49.3,29.82,SE,135,2.0,-999.0,58,-99.99,,,0.00,Acu-Link.com,2013-08-15 09:18:00,
2013-08-15 02:33:00,62.6,49.0,29.83,ESE,112,2.0,-999.0,61,-99.99,,,0.00,Acu-Link.com,2013-08-15 09:33:00,
2013-08-15 02:48:00,62.6,49.4,29.82,SE,135,1.6,-999.0,62,-99.99,,,0.00,Acu-Link.com,2013-08-15 09:48:00,
2013-08-15 03:03:00,60.8,48.1,29.82,SSE,157,1.6,-999.0,63,-99.99,,,0.00,Acu-Link.com,2013-08-15 10:03:00,
2013-08-15 03:19:00,60.8,49.0,29.83,ESE,112,2.0,-999.0,65,-99.99,,,0.00,Acu-Link.com,2013-08-15 10:19:00,
2013-08-15 03:34:00,60.8,49.4,29.82,East,90,1.6,-999.0,66,-99.99,,,0.00,Acu-Link.com,2013-08-15 10:34:00,
2013-08-15 03:49:00,60.8,49.8,29.82,East,90,2.0,-999.0,67,-99.99,,,0.00,Acu-Link.com,2013-08-15 10:49:00,
2013-08-15 04:04:00,60.8,50.2,29.83,ENE,67,1.6,-999.0,68,-99.99,,,0.00,Acu-Link.com,2013-08-15 11:04:00,
2013-08-15 04:19:00,59.0,48.8,29.83,ESE,112,0.0,-999.0,69,-99.99,,,0.00,Acu-Link.com,2013-08-15 11:19:00,
2013-08-15 04:35:00,59.0,48.8,29.82,ESE,112,0.0,-999.0,69,-99.99,,,0.00,Acu-Link.com,2013-08-15 11:35:00,
2013-08-15 04:50:00,59.0,49.2,29.83,NE,45,1.6,-999.0,70,-99.99,,,0.00,Acu-Link.com,2013-08-15 11:50:00,
2013-08-15 05:05:00,59.0,49.6,29.83,East,90,2.0,-999.0,71,-99.99,,,0.00,Acu-Link.com,2013-08-15 12:05:00,
2013-08-15 05:20:00,57.2,48.3,29.83,NE,45,0.0,-999.0,72,-99.99,,,0.00,Acu-Link.com,2013-08-15 12:20:00,
2013-08-15 05:35:00,55.4,46.9,29.83,ENE,67,0.0,-999.0,73,-99.99,,,0.00,Acu-Link.com,2013-08-15 12:35:00,
2013-08-15 05:50:00,55.4,47.6,29.83,ENE,67,0.0,-999.0,75,-99.99,,,0.00,Acu-Link.com,2013-08-15 12:50:00,
2013-08-15 06:06:00,53.6,46.6,29.83,NE,45,0.0,-999.0,77,-99.99,,,0.00,Acu-Link.com,2013-08-15 13:06:00,
2013-08-15 06:21:00,53.6,47.2,29.84,East,90,0.0,-999.0,79,-99.99,,,0.00,Acu-Link.com,2013-08-15 13:21:00,
2013-08-15 06:36:00,53.6,47.9,29.84,NNW,337,0.0,-999.0,81,-99.99,,,0.00,Acu-Link.com,2013-08-15 13:36:00,
2013-08-15 06:52:00,53.6,47.9,29.84,ESE,112,0.0,-999.0,81,-99.99,,,0.00,Acu-Link.com,2013-08-15 13:52:00,
2013-08-15 07:07:00,53.6,47.9,29.84,SSW,202,0.0,-999.0,81,-99.99,,,0.00,Acu-Link.com,2013-08-15 14:07:00,
2013-08-15 07:22:00,53.6,48.2,29.85,SSW,202,0.0,-999.0,82,-99.99,,,0.00,Acu-Link.com,2013-08-15 14:22:00,
2013-08-15 07:37:00,53.6,47.9,29.85,SW,225,0.0,-999.0,81,-99.99,,,0.00,Acu-Link.com,2013-08-15 14:37:00,
2013-08-15 08:08:00,59.0,50.7,29.85,ESE,112,2.0,-999.0,74,-99.99,,,0.00,Acu-Link.com,2013-08-15 15:08:00,
2013-08-15 08:23:00,60.8,50.2,29.85,ESE,112,2.0,-999.0,68,-99.99,,,0.00,Acu-Link.com,2013-08-15 15:23:00,
2013-08-15 08:38:00,62.6,50.7,29.85,ESE,112,1.6,-999.0,65,-99.99,,,0.00,Acu-Link.com,2013-08-15 15:38:00,
2013-08-15 08:54:00,64.4,50.7,29.85,ESE,112,0.0,-999.0,61,-99.99,,,0.00,Acu-Link.com,2013-08-15 15:54:00,
2013-08-15 09:09:00,66.2,50.5,29.84,SSE,157,2.0,-999.0,57,-99.99,,,0.00,Acu-Link.com,2013-08-15 16:09:00,
2013-08-15 09:24:00,68.0,51.2,29.84,NW,315,1.1,-999.0,55,-99.99,,,0.00,Acu-Link.com,2013-08-15 16:24:00,
2013-08-15 09:39:00,68.0,51.7,29.84,West,270,1.6,-999.0,56,-99.99,,,0.00,Acu-Link.com,2013-08-15 16:39:00,
2013-08-15 09:54:00,68.0,51.2,29.84,SSE,157,0.0,-999.0,55,-99.99,,,0.00,Acu-Link.com,2013-08-15 16:54:00,
2013-08-15 10:10:00,69.8,51.9,29.83,West,270,2.7,-999.0,53,-99.99,,,0.00,Acu-Link.com,2013-08-15 17:10:00,
2013-08-15 10:25:00,71.6,50.9,29.83,NE,45,3.1,-999.0,48,-99.99,,,0.00,Acu-Link.com,2013-08-15 17:25:00,
2013-08-15 10:40:00,73.4,48.3,29.83,ESE,112,4.0,-999.0,41,-99.99,,,0.00,Acu-Link.com,2013-08-15 17:40:00,
2013-08-15 10:55:00,77.0,48.0,29.83,ESE,112,2.7,-999.0,36,-99.99,,,0.00,Acu-Link.com,2013-08-15 17:55:00,
2013-08-15 11:11:00,75.2,45.7,29.82,East,90,4.7,-999.0,35,-99.99,,,0.00,Acu-Link.com,2013-08-15 18:11:00,
2013-08-15 11:26:00,75.2,47.8,29.82,SW,225,2.7,-999.0,38,-99.99,,,0.00,Acu-Link.com,2013-08-15 18:26:00,
2013-08-15 11:41:00,77.0,48.0,29.82,NE,45,2.7,-999.0,36,-99.99,,,0.00,Acu-Link.com,2013-08-15 18:41:00,
2013-08-15 11:56:00,77.0,45.7,29.82,SSE,157,3.6,-999.0,33,-99.99,,,0.00,Acu-Link.com,2013-08-15 18:56:00,
2013-08-15 12:12:00,77.0,45.7,29.82,SE,135,3.1,-999.0,33,-99.99,,,0.00,Acu-Link.com,2013-08-15 19:12:00,
2013-08-15 12:42:00,78.8,42.9,29.82,SW,225,2.7,-999.0,28,-99.99,,,0.00,Acu-Link.com,2013-08-15 19:42:00,
2013-08-15 12:58:00,77.0,41.4,29.83,SE,135,1.6,-999.0,28,-99.99,,,0.00,Acu-Link.com,2013-08-15 19:58:00,
2013-08-15 13:28:00,78.8,48.0,29.83,South,180,3.1,-999.0,34,-99.99,,,0.00,Acu-Link.com,2013-08-15 20:28:00,
2013-08-15 13:43:00,78.8,46.4,29.83,SSW,202,3.6,-999.0,32,-99.99,,,0.00,Acu-Link.com,2013-08-15 20:43:00,
2013-08-15 13:58:00,78.8,46.4,29.83,WNW,292,4.7,-999.0,32,-99.99,,,0.00,Acu-Link.com,2013-08-15 20:58:00,
2013-08-15 14:44:00,77.0,47.2,29.82,ESE,112,3.1,-999.0,35,-99.99,,,0.00,Acu-Link.com,2013-08-15 21:44:00,
2013-08-15 15:00:00,77.0,48.0,29.82,West,270,2.0,-999.0,36,-99.99,,,0.00,Acu-Link.com,2013-08-15 22:00:00,
2013-08-15 15:15:00,77.0,48.0,29.82,West,270,1.6,-999.0,36,-99.99,,,0.00,Acu-Link.com,2013-08-15 22:15:00,
2013-08-15 15:30:00,78.8,48.8,29.82,SSW,202,2.7,-999.0,35,-99.99,,,0.00,Acu-Link.com,2013-08-15 22:30:00,
2013-08-15 15:46:00,78.8,48.8,29.82,WSW,247,1.6,-999.0,35,-99.99,,,0.00,Acu-Link.com,2013-08-15 22:46:00,
2013-08-15 16:01:00,80.6,48.8,29.82,South,180,4.7,-999.0,33,-99.99,,,0.00,Acu-Link.com,2013-08-15 23:01:00,
2013-08-15 16:16:00,77.0,46.5,29.81,West,270,5.6,-999.0,34,-99.99,,,0.00,Acu-Link.com,2013-08-15 23:16:00,
2013-08-15 16:31:00,78.8,49.6,29.81,ESE,112,3.1,-999.0,36,-99.99,,,0.00,Acu-Link.com,2013-08-15 23:31:00,
2013-08-15 16:46:00,80.6,49.6,29.81,SSW,202,2.0,-999.0,34,-99.99,,,0.00,Acu-Link.com,2013-08-15 23:46:00,
2013-08-15 17:17:00,78.8,48.0,29.80,SE,135,1.1,-999.0,34,-99.99,,,0.00,Acu-Link.com,2013-08-16 00:17:00,
2013-08-15 17:32:00,77.0,47.2,29.80,SSW,202,2.7,-999.0,35,-99.99,,,0.00,Acu-Link.com,2013-08-16 00:32:00,
2013-08-15 17:47:00,77.0,48.7,29.79,NE,45,0.0,-999.0,37,-99.99,,,0.00,Acu-Link.com,2013-08-16 00:47:00,
2013-08-15 18:03:00,75.2,48.5,29.80,SSW,202,0.0,-999.0,39,-99.99,,,0.00,Acu-Link.com,2013-08-16 01:03:00,
2013-08-15 18:18:00,73.4,48.9,29.80,West,270,1.6,-999.0,42,-99.99,,,0.00,Acu-Link.com,2013-08-16 01:18:00,
2013-08-15 18:33:00,71.6,51.4,29.80,NNE,22,1.6,-999.0,49,-99.99,,,0.00,Acu-Link.com,2013-08-16 01:33:00,
2013-08-15 18:49:00,69.8,52.9,29.80,SW,225,1.6,-999.0,55,-99.99,,,0.00,Acu-Link.com,2013-08-16 01:49:00,
2013-08-15 19:04:00,66.2,55.7,29.81,NNW,337,1.1,-999.0,69,-99.99,,,0.02,Acu-Link.com,2013-08-16 02:04:00,
2013-08-15 19:19:00,62.6,56.3,29.81,NE,45,0.0,-999.0,80,-99.99,,,0.04,Acu-Link.com,2013-08-16 02:19:00,
2013-08-15 19:34:00,60.8,55.9,29.81,NNE,22,2.0,-999.0,84,-99.99,,,0.05,Acu-Link.com,2013-08-16 02:34:00,
2013-08-15 19:49:00,60.8,56.3,29.81,NE,45,0.0,-999.0,85,-99.99,,,0.06,Acu-Link.com,2013-08-16 02:49:00,
2013-08-15 20:04:00,60.8,56.9,29.81,East,90,0.0,-999.0,87,-99.99,,,0.06,Acu-Link.com,2013-08-16 03:04:00,
2013-08-15 20:20:00,60.8,57.2,29.82,South,180,0.0,-999.0,88,-99.99,,,0.06,Acu-Link.com,2013-08-16 03:20:00,
2013-08-15 20:35:00,60.8,57.5,29.82,SE,135,0.0,-999.0,89,-99.99,,,0.06,Acu-Link.com,2013-08-16 03:35:00,
2013-08-15 20:50:00,60.8,57.2,29.82,SSE,157,0.0,-999.0,88,-99.99,,,0.06,Acu-Link.com,2013-08-16 03:50:00,
2013-08-15 21:05:00,60.8,56.9,29.83,ESE,112,1.1,-999.0,87,-99.99,,,0.06,Acu-Link.com,2013-08-16 04:05:00,
2013-08-15 21:21:00,60.8,56.9,29.83,South,180,0.0,-999.0,87,-99.99,,,0.06,Acu-Link.com,2013-08-16 04:21:00,
2013-08-15 21:36:00,60.8,56.6,29.83,SE,135,0.0,-999.0,86,-99.99,,,0.06,Acu-Link.com,2013-08-16 04:36:00,
2013-08-15 21:51:00,60.8,56.3,29.83,SE,135,0.0,-999.0,85,-99.99,,,0.06,Acu-Link.com,2013-08-16 04:51:00,
2013-08-15 22:06:00,60.8,55.9,29.84,East,90,0.0,-999.0,84,-99.99,,,0.06,Acu-Link.com,2013-08-16 05:06:00,
2013-08-15 22:21:00,60.8,55.6,29.84,NE,45,0.0,-999.0,83,-99.99,,,0.06,Acu-Link.com,2013-08-16 05:21:00,
2013-08-15 22:36:00,60.8,54.6,29.85,ESE,112,0.0,-999.0,80,-99.99,,,0.06,Acu-Link.com,2013-08-16 05:36:00,
2013-08-15 22:52:00,60.8,53.5,29.85,ESE,112,0.0,-999.0,77,-99.99,,,0.06,Acu-Link.com,2013-08-16 05:52:00,
2013-08-15 23:07:00,60.8,52.1,29.84,East,90,0.0,-999.0,73,-99.99,,,0.06,Acu-Link.com,2013-08-16 06:07:00,
2013-08-15 23:22:00,60.8,52.1,29.85,ESE,112,0.0,-999.0,73,-99.99,,,0.06,Acu-Link.com,2013-08-16 06:22:00,
2013-08-15 23:37:00,60.8,53.2,29.86,SW,225,0.0,-999.0,76,-99.99,,,0.07,Acu-Link.com,2013-08-16 06:37:00,
2013-08-15 23:52:00,59.0,53.2,29.86,ESE,112,0.0,-999.0,81,-99.99,,,0.08,Acu-Link.com,2013-08-16 06:52:00,